Date String (YYYY-MM-DD hh:mm:ss) UTC,Instrument flags,Ambient pressure (hPa),Sample flow (lpm),Bypass flow (lpm),Sample temperature (°C),Ambient temperature (°C),ASC tube jacket temperature (°C),LED temperature (°C),Box temperature (°C),Sample RH (%),Span deviation,Mass concentration (μg/m³),Mass concentration (μg/m³),Mass concentration (μg/m³)
DateTimeUTC,F1_M11,P_M11,Q1_M11,Q2_M11,T1_M11,T2_M11,T3_M11,T4_M11,T5_M11,U1_M11,ZSPAN_M11,X0_M11,X2_M11,X1_M11
2022-02-24 09:00:00,,0820.2,5.00,0.00,22.4,21.5,00.0,31.5,24.0,04.8,0000.0,0009.24,0005.83,0005.38
2022-02-24 09:01:00,,0820.2,5.01,0.00,22.5,22.2,00.0,31.5,24.2,04.8,0000.0,0009.34,0005.85,0005.37
2022-02-24 09:02:00,,0820.2,4.99,0.00,22.6,23.0,00.0,31.5,24.4,04.8,0000.0,0009.25,0005.80,0005.34
2022-02-24 09:03:00,,0820.1,4.99,0.00,22.7,23.1,00.0,31.6,24.6,04.8,0000.0,0009.21,0005.78,0005.32
2022-02-24 09:04:00,,0820.1,5.01,0.00,22.7,22.8,00.0,31.6,24.6,04.8,0000.0,0009.29,0005.82,0005.33
2022-02-24 09:05:00,,0820.0,5.01,0.00,22.7,22.4,00.0,31.5,24.5,04.8,0000.7,0009.25,0005.79,0005.32
2022-02-24 09:06:00,,0819.9,4.99,0.00,22.6,22.1,00.0,31.5,24.4,04.8,0001.5,0009.00,0005.77,0005.31
2022-02-24 09:07:00,,0819.9,4.99,0.00,22.6,21.9,00.0,31.5,24.3,04.8,0002.0,0009.07,0005.78,0005.30
2022-02-24 09:08:00,,0819.9,5.00,0.00,22.5,21.7,00.0,31.5,24.2,04.8,0002.4,0009.24,0005.78,0005.31
2022-02-24 09:09:00,,0819.9,5.00,0.00,22.5,21.6,00.0,31.5,24.1,04.8,0002.1,0009.28,0005.78,0005.30
2022-02-24 09:10:00,,0819.9,5.00,0.00,22.4,21.4,00.0,31.5,24.1,04.8,0002.1,0009.41,0005.79,0005.30
2022-02-24 09:11:00,,0819.9,5.00,0.00,22.4,21.7,00.0,31.5,24.0,04.8,0002.2,0009.54,0005.77,0005.30
2022-02-24 09:12:00,,0819.9,5.00,0.00,22.5,22.5,00.0,31.5,24.3,04.8,0002.2,0009.66,0005.76,0005.31
2022-02-24 09:13:00,,0819.9,4.99,0.00,22.6,23.1,00.0,31.5,24.5,04.8,0001.8,0009.67,0005.76,0005.32
2022-02-24 09:14:00,,0819.9,5.00,0.00,22.7,23.0,00.0,31.6,24.6,04.8,0001.0,0009.71,0005.80,0005.34
2022-02-24 09:15:00,,0819.8,4.99,0.00,22.7,22.7,00.0,31.6,24.5,04.8,0000.4,0009.68,0005.82,0005.36
2022-02-24 09:16:00,,0819.7,5.00,0.00,22.7,22.5,00.0,31.5,24.4,04.8,0001.4,0009.81,0005.86,0005.37
2022-02-24 09:17:00,,0819.7,4.99,0.00,22.6,22.2,00.0,31.5,24.3,04.8,0001.4,0009.80,0005.86,0005.36
2022-02-24 09:18:00,,0819.6,5.01,0.00,22.5,21.9,00.0,31.5,24.2,04.8,0000.7,0009.66,0005.83,0005.33
2022-02-24 09:19:00,,0819.6,5.00,0.00,22.5,21.8,00.0,31.5,24.1,04.8,-000.2,0009.02,0005.79,0005.28
2022-02-24 09:20:00,,0819.6,5.00,0.00,22.4,21.6,00.0,31.5,24.1,04.8,0000.0,0008.96,0005.77,0005.25
2022-02-24 09:21:00,,0819.5,4.99,0.00,22.4,21.5,00.0,31.5,24.0,04.8,0000.2,0008.98,0005.79,0005.23
2022-02-24 09:22:00,,0819.5,5.00,0.00,22.4,22.0,00.0,31.5,24.1,04.8,-000.4,0008.88,0005.78,0005.19
2022-02-24 09:23:00,,0819.5,4.99,0.00,22.5,22.8,00.0,31.5,24.3,04.8,-000.6,0008.61,0005.74,0005.15
2022-02-24 09:24:00,,0819.5,5.01,0.00,22.7,23.2,00.0,31.5,24.5,04.7,-000.5,0008.59,0005.72,0005.11
2022-02-24 09:25:00,,0819.5,5.00,0.00,22.7,22.9,00.0,31.6,24.6,04.7,-000.0,0008.52,0005.66,0005.07
2022-02-24 09:26:00,,0819.5,5.00,0.00,22.7,22.6,00.0,31.6,24.5,04.7,0000.4,0008.61,0005.61,0005.01
2022-02-24 09:27:00,,0819.4,5.00,0.00,22.6,22.3,00.0,31.5,24.4,04.7,-000.2,0008.56,0005.57,0005.00
2022-02-24 09:28:00,,0819.4,5.00,0.00,22.6,22.0,00.0,31.5,24.3,04.7,-000.2,0008.48,0005.56,0005.01
2022-02-24 09:29:00,,0819.4,5.00,0.00,22.5,21.8,00.0,31.5,24.2,04.7,-000.5,0008.45,0005.57,0005.03
2022-02-24 09:30:00,,0819.4,4.99,0.00,22.5,21.6,00.0,31.5,24.1,04.7,-000.5,0008.57,0005.62,0005.07
2022-02-24 09:31:00,,0819.5,5.01,0.00,22.4,21.4,00.0,31.5,24.0,04.8,-000.9,0008.57,0005.62,0005.10
2022-02-24 09:32:00,,0819.5,4.99,0.00,22.3,21.5,00.0,31.4,24.0,04.8,-001.3,0008.73,0005.62,0005.13
2022-02-24 09:33:00,,0819.5,4.99,0.00,22.4,22.2,00.0,31.5,24.1,04.7,-001.0,0009.64,0005.67,0005.18
2022-02-24 09:34:00,,0819.5,5.01,0.00,22.5,22.9,00.0,31.5,24.3,04.7,-000.7,0009.71,0005.70,0005.22
2022-02-24 09:35:00,,0819.5,4.99,0.00,22.6,23.1,00.0,31.5,24.5,04.7,-000.1,0009.76,0005.76,0005.28
2022-02-24 09:36:00,,0819.4,5.01,0.00,22.7,22.8,00.0,31.5,24.5,04.7,0000.1,0009.83,0005.81,0005.32
2022-02-24 09:37:00,,0819.4,5.00,0.00,22.6,22.4,00.0,31.5,24.4,04.7,0000.4,0009.82,0005.88,0005.38
2022-02-24 09:38:00,,0819.4,5.00,0.00,22.6,22.1,00.0,31.5,24.3,04.7,0000.8,0009.85,0005.93,0005.42
2022-02-24 09:39:00,,0819.3,4.99,0.00,22.5,21.8,00.0,31.5,24.2,04.7,0000.6,0009.98,0005.99,0005.46
2022-02-24 09:40:00,,0819.4,5.00,0.00,22.4,21.6,00.0,31.5,24.1,04.7,0001.3,0010.08,0006.05,0005.49
2022-02-24 09:41:00,,0819.5,5.01,0.00,22.4,21.4,00.0,31.4,24.0,04.8,0001.5,0009.97,0006.05,0005.52
2022-02-24 09:42:00,,0819.6,5.00,0.00,22.3,21.4,00.0,31.4,23.9,04.8,0002.0,0010.15,0006.13,0005.55
2022-02-24 09:43:00,,0819.6,5.00,0.00,22.4,22.0,00.0,31.4,24.1,04.7,0002.0,0010.03,0006.17,0005.58
2022-02-24 09:44:00,,0819.6,4.99,0.00,22.5,22.8,00.0,31.5,24.3,04.7,0002.0,0009.19,0006.19,0005.60
2022-02-24 09:45:00,,0819.5,5.01,0.00,22.6,23.0,00.0,31.5,24.5,04.7,0002.0,0009.25,0006.23,0005.62
2022-02-24 09:46:00,,0819.6,5.01,0.00,22.7,22.7,00.0,31.5,24.5,04.7,0001.6,0009.29,0006.23,0005.62
2022-02-24 09:47:00,,0819.8,4.99,0.00,22.6,22.4,00.0,31.5,24.4,04.7,0001.2,0009.84,0006.29,0005.64
2022-02-24 09:48:00,,0819.8,5.00,0.00,22.6,22.0,00.0,31.5,24.3,04.7,0001.0,0010.08,0006.32,0005.67
2022-02-24 09:49:00,,0819.9,4.99,0.00,22.5,21.7,00.0,31.5,24.2,04.7,0000.3,0010.01,0006.33,0005.69
2022-02-24 09:50:00,,0819.9,5.00,0.00,22.4,21.5,00.0,31.4,24.1,04.8,0000.3,0010.01,0006.35,0005.70
2022-02-24 09:51:00,,0819.9,5.00,0.00,22.4,21.3,00.0,31.4,23.9,04.8,-000.0,0009.99,0006.35,0005.71
2022-02-24 09:52:00,,0820.1,5.01,0.00,22.3,21.5,00.0,31.4,23.9,04.8,-000.1,0010.04,0006.36,0005.71
2022-02-24 09:53:00,,0820.1,4.98,0.00,22.4,22.3,00.0,31.4,24.1,04.8,-000.4,0009.90,0006.31,0005.72
2022-02-24 09:54:00,,0819.9,5.01,0.00,22.5,23.0,00.0,31.5,24.4,04.8,-000.5,0009.75,0006.27,0005.72
2022-02-24 09:55:00,,0819.8,5.00,0.00,22.7,23.3,00.0,31.5,24.5,04.7,-000.5,0009.74,0006.25,0005.72
2022-02-24 09:56:00,,0819.7,5.00,0.00,22.7,23.0,00.0,31.5,24.5,04.7,-000.9,0009.80,0006.25,0005.71
2022-02-24 09:57:00,,0819.9,5.00,0.00,22.6,22.6,00.0,31.5,24.3,04.7,-001.0,0009.86,0006.25,0005.71
2022-02-24 09:58:00,,0820.1,4.99,0.00,22.5,22.2,00.0,31.5,24.2,04.8,-000.6,0010.16,0006.27,0005.70
2022-02-24 09:59:00,,0820.2,5.01,0.00,22.4,21.8,00.0,31.5,24.0,04.8,-000.6,0009.72,0006.20,0005.66
